GFSSW_925_spd_087.txt.gz
Wind_Speed
15 15 15 14 14 14 13 14 13 13 13 13 13 12 12 13 17 8 7 8 3 9 6 7 4 3 2 1 3 4 3 4 6 6 11 5 5 1 3 5 10 4 5 10 19
15 14 14 14 14 14 14 13 13 13 13 13 13 12 11 14 16 10 8 8 8 4 3 2 2 2 1 2 2 4 4 7 5 6 9 7 3 12 6 14 7 7 6 18 13
16 15 14 14 14 14 14 13 13 12 12 11 11 9 9 12 4 5 3 13 9 6 5 2 1 2 2 1 3 3 5 4 5 8 9 9 6 5 6 13 8 12 4 4 5
17 15 14 14 14 14 14 13 12 11 11 10 8 6 7 4 2 2 3 9 7 7 6 5 2 4 2 5 4 2 6 6 7 7 6 8 9 10 7 13 10 13 4 10 7
18 17 15 13 13 13 13 13 12 11 10 10 5 3 1 2 8 2 6 8 8 8 5 4 2 3 3 4 1 5 4 5 9 9 8 11 15 15 20 10 12 14 11 5 7
20 18 17 15 13 12 12 11 10 9 10 8 2 1 1 2 2 4 11 10 8 9 3 4 4 5 2 2 2 4 4 6 6 7 5 6 11 3 2 7 9 9 10 10 6
25 21 18 15 13 11 9 8 7 7 7 5 1 2 1 12 3 3 14 13 11 10 4 7 5 1 3 5 2 3 4 7 3 4 5 4 10 8 6 5 10 11 11 10 11
30 23 20 15 12 8 7 6 5 5 5 3 4 2 6 4 4 9 16 15 12 11 15 14 7 3 3 1 7 5 3 3 5 2 7 8 8 9 11 7 11 9 10 10 12
35 25 20 18 12 8 8 8 6 3 3 1 3 3 9 5 8 16 18 12 10 11 18 16 1 1 5 4 5 5 3 4 8 5 3 6 7 5 7 4 10 12 10 9 9
36 30 19 17 14 10 9 10 4 1 3 1 2 3 7 2 4 11 23 24 5 5 3 3 5 1 3 4 4 3 2 4 4 5 4 8 9 8 9 6 9 10 10 7 8
38 34 22 17 15 13 10 1 3 0 4 8 6 5 6 8 2 7 13 8 5 3 4 0 2 7 10 8 8 5 4 9 12 15 4 9 8 10 8 6 9 9 9 8 8
38 35 32 20 16 12 9 0 3 2 8 13 17 12 19 4 4 6 9 6 5 7 3 3 6 10 6 6 7 8 10 13 12 13 6 10 11 9 6 5 5 7 9 9 7
38 41 37 25 16 7 5 7 14 9 2 6 6 6 6 12 8 8 8 6 5 5 6 7 12 3 5 7 6 8 5 7 12 6 4 5 7 5 5 4 7 6 7 7 10
40 45 39 25 5 2 6 8 17 1 4 6 4 5 6 6 5 15 16 7 3 10 5 6 13 9 10 6 7 7 8 10 7 4 9 4 17 6 6 8 6 9 9 10 11
43 46 41 18 7 3 2 12 11 2 4 2 2 8 6 8 2 3 7 3 9 8 7 10 6 7 5 11 6 9 8 7 8 6 0 3 6 2 5 6 11 9 9 11 10
44 46 37 9 7 13 8 12 3 4 5 2 5 5 5 3 3 2 5 3 3 5 5 11 1 7 9 8 3 7 3 5 5 1 3 7 9 4 5 7 7 6 9 10 10
45 43 30 12 4 6 9 2 2 3 5 4 4 0 4 5 5 2 4 5 7 3 6 8 6 5 4 4 3 5 5 4 4 3 8 4 5 7 5 9 9 9 11 13 11
45 37 27 18 7 11 3 3 4 2 4 3 3 3 2 3 2 1 1 2 3 2 2 4 9 5 3 5 5 5 7 4 6 5 14 3 6 5 3 7 9 4 6 6 13
44 25 13 4 8 5 3 2 4 1 3 7 8 2 2 2 2 1 3 4 3 3 1 2 5 3 4 1 4 3 4 2 4 2 3 4 6 7 4 4 7 9 8 9 8
36 12 11 4 10 4 3 4 3 2 6 8 4 2 3 3 2 4 2 0 2 3 4 3 3 7 5 5 3 4 3 2 3 4 6 4 4 6 6 8 13 14 11 9 8
9 4 6 2 3 4 2 4 4 4 9 6 3 4 4 4 4 4 4 5 4 4 4 6 6 4 2 4 6 2 1 3 3 4 3 5 4 5 6 11 11 10 7 10 11
5 3 10 4 3 1 1 3 9 7 12 9 6 3 2 4 3 4 6 3 7 3 4 3 3 4 7 4 4 2 4 5 4 4 2 2 11 8 12 10 7 9 13 20 15
3 3 8 5 1 3 5 6 7 5 3 9 7 5 2 2 2 3 3 2 2 3 2 2 1 3 8 5 3 2 2 2 2 1 5 4 9 3 8 8 8 9 14 15 14
3 4 4 4 3 4 5 5 10 10 3 7 10 4 9 4 2 4 7 4 4 1 2 2 4 6 9 7 3 4 8 6 6 3 5 11 21 15 12 6 9 8 11 13 13
2 2 1 4 3 7 3 5 10 7 1 3 4 5 6 5 11 4 4 14 8 6 2 5 5 6 5 4 6 10 11 10 8 10 7 16 12 8 5 7 7 8 10 12 10
2 3 3 4 6 4 1 3 6 7 4 6 2 9 7 5 10 17 14 4 6 3 6 1 3 2 8 11 12 13 12 9 10 14 14 14 6 2 5 6 10 15 13 11 9
1 1 0 3 4 3 3 4 3 12 7 8 6 9 10 12 11 12 12 14 12 9 6 5 4 2 4 3 4 6 5 5 2 1 3 4 2 3 5 8 9 14 17 13 7

GFSSW_925_spd_093.txt.gz
Wind_Speed
16 14 13 13 12 11 11 11 11 10 10 11 11 11 11 12 14 8 7 6 3 9 9 5 5 6 4 4 3 2 4 7 7 8 5 2 3 6 3 9 6 7 6 17 13
16 15 13 13 12 11 11 10 11 11 11 11 10 10 10 12 11 10 7 8 4 17 7 6 6 7 3 3 3 4 5 8 5 8 8 8 6 11 6 12 9 12 11 12 7
18 16 15 13 12 12 11 11 11 10 11 11 9 9 8 9 4 2 2 12 10 11 5 6 8 4 4 4 4 5 7 6 6 10 9 11 11 7 9 13 12 11 15 16 13
21 18 16 13 12 11 11 11 10 10 9 9 9 7 6 3 3 1 4 13 13 9 8 6 4 5 5 6 5 5 7 6 3 7 6 9 7 8 10 14 15 15 15 16 15
22 21 18 15 12 11 10 10 9 9 9 8 8 3 0 2 7 2 10 14 13 11 10 6 6 5 5 4 6 5 4 5 7 8 8 5 12 10 7 13 13 13 9 14 12
24 22 19 16 13 11 10 9 8 8 8 8 5 1 1 4 2 3 13 14 11 9 8 6 4 3 4 3 4 5 4 6 7 8 6 7 12 3 5 6 11 9 9 6 10
33 27 20 18 16 10 8 7 6 6 6 5 3 2 3 9 5 5 13 10 11 6 4 5 4 3 6 5 3 2 5 6 11 12 7 3 11 8 10 2 7 8 10 9 7
33 35 26 17 13 12 9 6 6 5 5 3 4 3 6 3 6 7 14 7 8 9 3 2 1 3 1 5 2 2 2 6 1 4 1 7 14 9 2 1 5 8 7 6 11
34 35 35 26 13 9 9 10 9 4 2 4 3 3 6 3 5 10 14 6 9 5 4 2 1 2 3 3 3 1 5 3 4 3 3 3 3 12 10 7 9 7 8 8 8
32 35 36 35 23 10 6 5 5 6 4 3 4 5 5 1 3 7 13 7 4 5 5 3 2 4 3 5 4 4 3 3 7 2 9 13 14 12 16 12 10 11 10 8 8
32 34 35 38 33 11 0 2 2 2 5 7 3 3 4 5 3 5 8 9 2 2 5 2 6 11 11 9 6 5 6 8 11 10 5 10 10 12 13 11 12 14 11 9 10
32 34 36 38 30 9 4 3 2 1 9 14 16 10 11 2 3 3 12 8 6 8 4 4 12 13 7 7 8 8 9 10 10 7 6 12 13 14 11 10 12 13 13 12 11
31 33 36 39 20 4 3 4 4 6 4 4 5 4 5 12 5 5 12 8 6 9 10 11 5 6 9 9 9 8 10 9 12 11 7 9 13 10 9 6 10 13 14 12 13
33 33 35 40 4 7 4 3 5 4 3 4 3 1 5 6 5 11 12 8 4 12 8 8 12 11 11 12 11 11 10 12 9 7 11 2 10 15 10 11 10 13 13 10 10
32 34 35 31 14 4 3 1 0 3 4 3 3 7 4 6 2 5 6 4 11 7 6 5 4 5 7 10 11 8 5 7 9 15 7 12 8 6 4 12 14 13 6 7 8
37 37 39 15 7 11 7 4 3 2 4 2 4 4 6 3 1 3 5 2 2 7 8 12 3 4 8 4 11 4 8 8 2 5 12 17 14 9 8 8 5 4 5 5 10
43 45 19 7 3 3 3 4 2 4 5 3 4 1 3 2 4 2 5 10 9 6 11 13 19 18 11 14 14 10 8 8 8 8 12 2 7 11 10 14 11 4 8 9 12
48 18 7 3 5 5 1 2 3 3 4 5 4 2 6 10 3 6 0 5 7 10 8 7 9 6 6 14 13 7 9 9 11 11 14 9 8 7 7 7 1 5 6 10 14
36 11 12 16 3 6 2 2 1 3 4 7 6 2 1 2 10 9 10 6 3 4 6 4 6 3 3 1 7 5 8 5 11 11 9 10 15 11 11 7 2 8 12 15 16
16 8 10 9 6 1 2 1 3 3 4 4 2 5 1 6 4 9 4 12 4 2 3 3 8 4 3 2 0 5 3 5 5 8 14 9 13 10 8 3 8 11 16 18 18
6 1 13 5 4 2 1 2 2 4 3 3 3 2 5 4 5 4 4 2 1 7 2 4 5 9 3 6 15 9 7 3 4 4 6 12 7 2 3 5 8 11 14 12 12
7 2 14 4 2 2 2 5 7 7 3 2 4 5 5 7 5 6 10 7 7 10 9 11 4 10 15 14 5 5 11 12 9 6 6 6 10 7 9 4 6 12 9 9 10
4 3 10 6 2 2 4 4 5 9 7 1 3 4 6 6 5 13 7 6 7 7 5 2 3 5 4 7 2 7 8 6 4 4 15 12 10 4 2 12 15 10 9 10 11
3 3 5 5 3 3 5 3 5 10 4 3 1 2 3 5 9 5 4 5 7 12 12 9 5 13 11 9 4 10 12 8 8 8 15 17 24 22 20 17 14 11 9 10 12
3 3 2 4 5 5 4 5 8 5 1 5 2 9 6 4 6 8 10 12 10 15 10 3 6 13 16 17 16 17 20 21 23 23 22 23 24 24 20 18 11 8 9 12 14
2 2 2 2 5 5 1 1 6 6 5 1 2 6 8 5 5 4 4 4 7 3 4 6 4 9 14 14 15 20 24 23 22 22 23 23 26 19 11 5 8 11 12 14 17
2 2 0 2 3 4 2 4 7 10 7 9 8 7 8 11 10 11 13 11 9 4 5 5 6 8 15 12 10 13 17 18 17 18 14 16 17 4 9 9 11 15 15 18 17

GFSSW_925_spd_096.txt.gz
Wind_Speed
16 13 12 11 12 11 10 10 10 10 11 11 11 10 11 12 12 7 12 8 6 9 9 7 8 10 10 7 6 5 7 12 16 13 10 5 10 6 4 10 10 8 11 8 11
17 15 12 11 11 11 11 10 10 10 10 10 10 10 9 12 12 16 13 11 6 15 9 10 9 12 9 10 7 11 11 14 6 12 9 6 8 9 9 12 12 11 11 13 12
18 17 14 11 10 10 10 10 10 9 9 9 9 10 8 9 9 4 4 12 12 17 9 9 10 10 9 9 10 10 14 9 8 9 7 10 12 11 10 15 14 12 10 12 11
20 18 16 13 10 9 9 9 9 9 8 8 8 8 6 5 1 3 5 16 18 10 9 9 11 11 10 11 12 10 13 10 9 6 11 12 11 12 11 14 12 11 12 12 12
24 20 17 14 12 9 8 7 7 7 7 7 7 5 3 7 4 3 11 16 10 9 11 10 11 10 12 12 10 14 9 9 10 11 11 11 14 14 13 10 13 8 10 11 9
30 28 21 16 13 10 8 7 5 5 4 5 5 1 5 8 3 5 11 13 9 12 10 8 6 6 5 8 13 5 9 9 8 11 9 11 15 9 9 7 9 11 10 9 8
28 29 30 24 15 11 9 7 6 4 3 3 2 1 6 7 3 8 12 10 11 7 8 5 2 7 4 5 2 4 9 10 13 13 12 9 14 16 13 11 10 11 7 8 11
28 30 29 31 25 12 8 7 7 6 4 3 5 3 6 3 7 8 13 9 8 6 1 3 2 2 6 3 4 7 7 11 5 4 5 8 12 5 3 5 6 5 6 5 5
27 29 31 31 31 15 9 8 8 6 4 4 3 5 3 4 9 14 15 11 11 8 6 3 4 5 6 11 10 11 12 9 7 5 6 9 8 6 6 9 7 8 7 7 6
28 30 31 32 35 23 4 1 3 8 4 4 4 6 6 3 9 13 14 9 13 11 8 10 8 10 11 10 12 10 11 8 10 7 8 11 13 12 12 12 11 11 10 9 9
29 31 32 31 36 21 5 2 5 6 8 8 3 4 4 2 6 12 15 14 11 13 14 13 11 14 14 12 11 7 9 11 9 9 10 12 12 10 11 11 13 14 12 12 12
29 31 32 32 33 15 6 5 3 3 8 12 15 14 13 1 5 10 15 14 12 16 14 8 15 14 9 8 11 12 13 14 11 9 7 15 16 14 14 15 14 14 14 14 14
30 31 33 32 27 5 8 10 2 5 6 1 3 5 7 15 8 12 18 18 14 16 14 17 2 5 11 13 14 14 14 12 12 11 13 17 19 19 16 13 13 16 16 15 13
31 32 34 33 6 6 8 3 5 4 5 6 5 5 5 6 7 10 16 13 10 14 14 12 16 15 10 12 12 13 12 13 13 13 13 4 14 16 16 11 14 12 11 12 3
34 36 35 17 12 6 2 1 3 4 4 4 6 6 7 9 8 9 14 10 14 10 8 6 7 8 14 15 12 14 10 9 12 14 17 19 12 14 12 12 12 11 8 4 2
40 43 28 4 10 10 7 6 5 6 4 5 5 6 10 9 5 5 9 8 4 13 13 18 6 7 10 6 8 8 11 15 16 13 16 20 18 15 11 9 2 6 6 1 4
44 20 7 4 2 2 3 5 5 5 2 4 3 5 4 6 8 5 9 15 10 10 14 17 20 20 16 14 15 14 13 12 15 14 16 14 8 13 13 7 13 11 3 3 6
35 10 6 3 6 5 3 6 6 2 2 1 1 3 5 3 5 2 3 10 11 15 15 15 15 15 9 16 17 16 14 13 19 15 15 6 10 6 2 6 9 4 4 5 7
18 5 8 11 1 3 5 6 4 2 3 4 5 6 6 3 4 3 6 8 4 3 9 10 16 4 7 10 9 11 11 13 19 20 17 17 19 17 12 10 7 10 5 7 12
8 2 12 8 3 5 4 3 0 5 5 4 5 4 6 4 5 2 5 7 7 5 4 8 14 16 13 7 13 12 11 10 10 12 15 10 10 8 10 14 8 8 7 10 14
4 2 10 6 2 4 3 3 1 6 7 5 3 5 5 7 7 9 5 6 9 9 8 8 5 9 11 14 14 11 14 15 14 13 12 13 9 6 5 6 5 8 10 16 16
5 2 10 4 4 0 2 3 2 4 3 3 6 8 9 5 8 7 12 12 6 4 2 2 4 12 19 13 13 12 17 17 11 9 11 10 15 16 10 11 3 13 15 16 13
4 3 6 7 2 2 1 2 3 7 6 4 4 3 4 8 4 8 11 4 9 6 4 2 6 5 7 15 14 14 17 14 17 16 20 16 10 5 6 8 14 15 14 13 10
4 2 3 5 3 3 3 2 4 6 7 6 6 4 5 5 6 7 6 5 1 3 8 2 7 13 13 13 6 11 12 12 14 11 17 19 24 19 18 17 17 16 16 12 11
4 2 4 2 3 3 1 1 5 5 4 7 3 5 5 3 7 10 13 13 12 9 6 5 5 15 20 21 19 19 20 19 21 22 22 21 25 23 21 19 18 14 12 13 14
3 3 2 2 1 2 3 2 3 2 1 3 4 8 8 6 7 5 6 8 9 8 10 6 4 14 18 16 16 20 21 23 25 24 26 25 25 19 17 9 13 13 14 16 16
2 0 4 3 1 2 1 1 3 8 6 5 6 7 11 13 11 13 16 17 13 9 8 4 5 4 7 10 11 14 20 20 18 20 17 19 16 10 10 13 11 16 17 18 19

GFSSW_925_spd_102.txt.gz
Wind_Speed
22 21 18 17 14 13 12 12 12 12 12 12 13 13 14 14 13 12 14 13 11 25 12 11 12 15 16 15 17 12 12 14 18 19 20 20 11 10 11 13 7 2 10 5 7
22 22 21 18 15 14 12 12 12 12 12 12 12 13 13 13 15 22 23 22 17 16 12 14 12 13 13 14 13 15 10 19 17 18 14 14 9 14 5 17 10 10 13 18 12
26 23 22 20 17 14 13 12 12 12 12 12 12 12 11 9 11 6 13 27 22 17 18 18 16 14 15 16 17 15 17 17 18 20 3 12 14 6 11 12 10 11 15 15 16
25 26 25 21 20 16 13 12 12 11 11 12 12 11 10 7 2 5 9 19 16 13 16 19 14 14 15 17 17 19 21 17 20 17 2 10 13 12 12 15 13 12 14 11 12
22 24 25 26 24 19 15 13 12 11 11 11 10 10 6 8 10 7 9 12 13 13 18 15 15 15 17 17 17 18 18 18 18 16 12 10 14 14 16 13 11 15 14 13 12
21 23 24 25 25 26 19 14 12 11 9 7 8 7 6 12 7 10 12 12 13 15 16 17 13 14 15 18 18 14 19 16 18 14 14 16 16 16 17 16 14 12 12 15 10
22 23 24 25 26 26 24 17 13 11 9 7 7 5 11 17 3 11 13 12 14 16 12 16 18 13 10 13 18 13 17 13 15 17 16 16 19 18 17 17 14 14 13 13 13
21 23 23 25 27 27 30 20 11 11 10 7 5 6 8 6 18 13 15 15 15 13 16 10 6 11 16 13 7 12 14 16 19 22 21 18 18 18 18 21 18 11 16 12 13
23 24 25 25 27 28 30 11 7 10 9 5 6 9 8 4 10 15 16 16 11 10 8 5 6 12 14 13 13 14 15 20 20 20 17 18 16 18 17 3 7 11 10 13 9
23 24 26 26 26 27 25 8 5 3 2 7 14 9 11 11 12 15 17 15 11 10 10 10 8 12 13 13 13 17 19 17 16 14 13 13 14 15 13 14 11 13 13 11 12
25 26 27 29 29 24 21 8 4 5 9 9 4 10 5 5 1 12 16 14 12 9 13 14 11 14 17 17 18 20 21 16 15 9 13 13 12 15 13 16 15 15 12 13 13
29 29 29 36 32 23 11 7 10 6 8 20 21 18 22 6 6 11 19 14 14 15 15 14 16 16 17 17 17 18 17 18 16 19 14 15 17 17 18 18 16 14 13 13 12
30 33 33 38 29 16 18 19 14 12 7 15 20 19 15 12 10 9 15 16 13 16 16 16 16 18 14 15 18 17 15 16 18 17 18 15 16 17 19 19 19 17 14 13 11
29 33 38 34 12 9 16 19 17 7 5 10 10 7 11 9 9 17 16 13 15 16 16 15 18 18 12 12 13 18 16 17 17 16 13 15 15 17 16 19 18 20 15 11 10
31 31 35 19 16 7 9 1 3 3 5 10 11 12 15 13 10 16 19 14 16 16 10 14 15 18 15 17 17 15 15 16 17 15 17 19 12 15 17 17 18 16 17 13 7
33 36 26 5 9 16 9 4 6 6 5 9 9 11 13 16 6 17 15 15 15 17 16 16 17 15 14 14 17 15 13 15 15 14 15 18 18 16 17 18 17 15 16 12 12
38 35 14 11 7 5 10 8 5 5 9 5 9 14 16 12 13 11 15 15 15 12 16 19 20 18 16 14 16 9 5 8 12 13 15 20 17 16 17 7 4 8 9 10 10
44 15 9 12 9 6 9 8 7 12 5 4 4 4 10 11 10 13 17 14 19 18 16 14 12 16 17 21 18 18 16 12 19 14 17 19 16 11 6 6 9 5 8 9 9
33 15 10 5 9 7 8 9 3 5 8 8 10 8 10 4 4 6 9 7 9 5 12 14 17 12 10 15 15 14 15 12 10 17 14 15 22 20 18 13 13 9 7 8 4
18 16 6 4 6 7 7 12 5 4 5 6 10 7 5 3 4 3 2 1 5 7 5 12 15 12 15 13 16 15 12 8 5 6 17 15 13 11 9 9 2 8 10 7 9
5 4 7 6 6 6 9 5 4 9 5 5 8 8 9 4 5 2 5 6 9 10 9 9 8 11 15 14 16 14 14 13 14 12 5 10 9 3 5 8 2 6 6 7 7
8 3 8 7 6 7 8 8 3 5 0 5 4 6 7 7 5 6 5 4 3 8 8 8 4 8 16 22 18 17 19 13 9 9 12 11 9 14 12 9 8 12 9 9 10
5 7 7 8 5 4 10 3 3 3 4 5 4 2 6 6 4 5 2 6 6 3 4 2 2 7 10 14 7 8 14 13 13 8 17 13 13 11 7 15 22 15 16 11 15
5 3 5 6 9 8 8 3 4 7 3 3 5 4 8 8 7 5 6 3 2 3 8 3 9 10 9 18 12 12 13 15 10 5 12 18 22 18 15 6 13 14 12 13 14
4 2 3 3 2 7 4 8 4 3 3 3 4 3 5 4 8 10 13 9 4 10 6 3 7 11 16 20 22 24 24 21 21 22 20 20 23 20 18 17 14 13 15 15 17
4 5 6 9 5 6 4 5 3 3 1 3 2 6 4 7 11 14 16 13 9 7 6 3 3 9 15 18 21 25 25 26 27 24 24 26 26 19 18 16 19 13 8 9 14
14 9 4 7 6 5 1 5 4 2 6 3 4 5 8 8 6 10 14 14 12 11 11 6 3 7 15 16 18 15 19 23 22 22 22 21 21 13 14 10 10 9 9 12 14

GFSSW_925_spd_105.txt.gz
Wind_Speed
22 19 18 17 14 12 11 11 11 11 11 12 12 12 13 14 15 9 9 15 16 18 11 6 10 11 12 4 6 3 2 5 8 9 9 15 6 8 5 7 5 3 9 9 9
21 22 21 18 16 13 11 11 11 11 11 11 12 12 13 13 14 15 26 19 20 13 17 14 9 11 4 5 4 5 5 8 9 11 8 11 5 8 7 3 3 7 6 1 7
21 21 22 22 18 16 12 10 10 10 11 10 10 11 11 9 5 9 5 27 24 17 15 14 20 6 8 6 7 4 9 7 12 15 7 6 7 6 7 5 4 2 3 4 4
20 22 22 22 23 19 15 12 10 10 10 10 9 9 10 2 2 1 2 20 25 20 12 10 8 5 8 8 10 8 11 9 18 16 7 5 6 4 4 5 7 4 4 5 8
19 20 23 22 23 22 21 16 12 10 9 8 7 8 3 4 9 9 6 15 21 15 16 11 9 7 6 9 10 10 10 13 18 12 7 6 6 6 6 8 8 3 5 6 8
19 20 22 24 23 23 24 23 17 11 8 6 5 4 3 5 9 11 12 16 13 15 16 17 9 10 8 9 9 9 15 13 12 12 5 6 6 4 7 9 8 6 6 5 7
21 21 22 23 24 25 25 28 20 10 7 6 3 2 5 14 7 12 12 11 15 18 12 24 23 6 6 9 8 9 8 8 10 4 8 7 8 9 10 9 9 10 8 9 10
23 23 22 23 25 27 27 27 15 7 6 5 3 2 7 10 9 15 17 14 16 21 22 19 21 3 2 8 8 8 5 5 5 7 10 8 10 10 10 11 14 10 8 8 10
23 25 25 26 25 30 29 23 11 7 7 5 2 5 8 5 13 16 24 18 23 19 16 11 8 3 6 5 6 5 5 8 10 16 16 17 8 11 12 8 6 10 8 8 7
25 25 27 30 28 31 30 20 9 5 1 4 9 4 9 6 14 17 16 17 6 6 3 3 0 3 4 1 6 8 7 8 13 14 14 16 12 9 8 7 8 8 8 7 8
27 28 27 30 33 29 22 6 1 2 7 9 9 6 11 13 12 10 18 14 7 7 7 7 4 7 12 11 13 11 12 11 9 9 6 4 8 8 9 3 6 8 10 10 10
28 28 31 30 37 25 13 5 11 4 7 18 17 17 22 13 6 8 18 7 7 7 8 6 10 11 12 13 12 13 13 12 7 8 6 7 7 7 8 6 8 10 10 10 8
29 29 31 37 36 18 14 20 23 19 4 11 17 9 6 8 5 5 13 8 6 8 8 9 10 17 17 13 12 9 6 7 5 10 9 8 8 8 4 6 9 9 8 9 11
32 31 31 39 9 8 7 10 22 18 3 6 6 9 9 5 5 13 8 7 4 9 12 8 13 17 12 11 7 6 10 12 7 5 5 5 10 7 7 13 14 17 12 10 11
34 34 36 25 16 7 9 16 12 8 3 10 8 13 9 11 3 6 14 5 7 10 5 7 7 9 9 6 12 3 8 10 7 5 2 6 3 6 7 10 13 10 19 14 10
34 35 42 4 7 16 14 13 4 1 6 10 8 8 10 10 11 10 7 4 4 6 9 12 9 6 4 10 8 7 6 7 5 2 7 6 5 5 10 11 11 11 12 14 16
37 40 30 14 6 10 14 5 1 4 4 2 8 13 14 11 9 10 12 9 6 5 9 13 14 13 14 9 8 4 3 4 4 3 5 8 11 12 10 3 5 4 13 14 12
45 31 13 16 11 11 10 2 4 1 1 9 11 15 14 12 10 14 13 8 12 11 7 5 9 14 8 9 5 8 5 4 5 4 7 8 4 5 12 11 11 7 8 10 9
38 16 10 14 10 8 1 4 2 5 7 8 6 4 6 9 5 10 13 13 7 1 1 3 4 12 10 9 2 4 7 7 4 7 4 4 10 10 6 10 5 8 10 9 8
25 10 12 16 10 9 2 5 4 5 7 6 4 5 4 6 9 7 5 4 4 3 7 3 4 6 6 7 8 2 4 6 1 3 4 4 6 2 8 9 6 8 5 6 5
4 3 8 15 11 1 3 5 6 8 4 5 7 6 6 2 8 3 0 3 7 7 8 5 2 4 6 1 4 5 6 5 3 6 5 1 5 6 8 8 7 12 14 8 4
6 3 14 17 2 3 4 1 9 2 6 2 2 3 5 6 4 4 2 6 6 5 4 2 1 2 4 11 10 6 7 1 2 5 3 3 11 11 5 5 6 7 8 9 5
4 3 11 12 3 4 4 10 12 1 6 6 5 6 6 3 3 5 6 10 8 5 3 2 2 3 6 5 7 5 8 5 4 2 4 5 4 3 6 2 4 6 9 10 5
3 3 0 2 4 5 2 6 7 8 3 3 5 5 1 3 4 2 4 3 5 6 8 4 2 4 4 6 7 7 10 10 4 3 2 8 14 13 9 5 6 8 9 12 8
3 3 5 3 3 5 6 8 10 4 5 5 2 1 5 3 6 4 1 7 1 12 5 2 2 5 7 11 14 15 15 13 16 14 13 13 18 12 10 10 8 10 9 9 12
3 4 5 6 8 4 2 5 7 7 4 5 4 9 8 3 3 6 5 4 3 2 3 3 1 4 4 12 15 19 17 19 18 19 22 20 23 11 14 14 8 6 6 6 7
8 8 2 5 7 4 3 3 8 5 1 4 7 3 4 7 6 7 6 5 6 3 2 4 1 1 2 7 13 9 15 15 16 17 12 16 7 11 8 8 8 8 11 12 12